Temperature
19 19 19 19 19 19 18 18 18 18 18 17 17 17 17 17 17 17 16 16 16 16 16 16 16 16 16 16 15 15 15 15 15 15 15 14 14 14 14 14 14 14 14
19 19 19 19 19 19 18 18 18 18 18 17 17 17 17 17 16 16 16 16 16 16 16 16 16 16 15 15 15 15 15 15 15 15 15 14 14 14 14 14 14 14 14
19 19 19 19 19 18 18 18 18 18 17 17 17 17 17 16 16 16 16 16 16 16 16 16 16 15 15 15 15 15 15 15 15 15 15 14 14 14 14 14 14 14 14
19 19 19 19 19 18 18 18 18 17 17 17 17 17 17 16 16 16 16 16 16 16 16 16 16 15 15 15 15 15 15 15 15 15 14 14 14 14 13 13 13 13 13
19 19 19 19 19 18 18 18 18 17 17 17 17 17 17 16 16 16 16 16 16 16 15 15 15 15 15 15 15 15 15 14 14 14 14 14 14 14 14 13 13 13 13
19 19 19 19 19 18 18 18 18 17 17 17 17 16 16 16 16 16 16 16 16 16 15 15 15 15 15 15 15 15 14 14 14 14 14 14 14 14 14 13 13 13 12
19 19 18 19 18 18 18 18 17 17 17 17 16 16 16 16 16 16 16 16 16 15 15 15 15 15 15 15 14 14 14 14 14 14 14 14 14 14 14 13 13 12 12
19 18 18 18 18 18 18 18 17 17 17 17 16 16 16 16 16 16 16 15 15 15 15 15 15 15 15 14 14 14 14 14 14 14 14 14 13 13 13 13 13 12 12
18 18 18 18 18 18 18 17 17 17 17 17 16 16 16 16 15 15 15 15 15 15 15 15 15 14 14 14 14 14 14 14 14 14 13 13 13 13 13 13 13 13 12
18 18 18 18 18 18 18 17 17 17 17 16 16 16 16 15 15 15 15 15 15 15 15 15 14 14 14 14 14 14 14 13 13 13 13 13 13 13 13 13 12 12 12
18 18 18 18 17 17 17 17 17 17 17 16 16 16 15 15 15 15 15 15 15 14 14 14 14 14 14 14 14 13 13 13 13 13 13 13 13 12 12 12 12 12 12
18 18 18 17 17 17 17 17 17 16 16 16 16 16 15 15 15 15 15 15 14 14 14 14 14 14 14 13 13 13 13 13 13 13 13 12 12 12 12 12 12 11 11
18 18 17 17 17 17 17 16 16 16 16 16 16 15 15 15 15 15 15 14 14 14 14 14 14 14 13 13 13 13 13 12 12 12 12 12 12 12 12 11 11 11 11
17 17 17 17 17 16 16 16 16 16 16 16 15 15 15 15 15 15 14 14 14 14 14 14 13 13 13 13 13 12 12 12 12 12 12 12 12 11 11 11 11 11 11
17 17 17 17 16 16 16 16 16 16 15 15 15 15 15 15 15 14 14 14 14 14 14 13 13 13 13 13 12 12 12 12 12 12 11 11 11 11 11 11 11 11 10
17 17 17 16 16 16 16 16 15 15 15 15 15 15 15 15 14 14 14 14 14 14 13 13 13 13 12 12 12 12 12 11 11 11 11 11 11 11 11 11 10 10 10
17 17 17 16 16 16 16 15 15 15 15 15 14 14 14 14 14 14 14 14 13 13 13 13 13 12 12 12 12 11 11 11 11 11 11 11 11 11 10 10 10 10 10
17 17 17 16 16 16 15 15 15 15 15 14 14 14 14 14 14 14 14 13 13 13 13 13 12 12 12 12 12 11 11 11 11 11 11 10 10 10 10 10 10 10 10
17 17 17 16 16 16 15 15 15 15 14 14 14 14 14 14 14 14 13 13 13 13 13 12 12 12 12 12 11 11 11 11 11 11 10 10 10 10 10 10 10 10 10
17 16 16 16 16 15 15 15 15 14 14 14 14 13 13 13 13 13 13 13 13 12 12 12 12 12 12 11 11 11 11 10 10 10 10 10 10 10 10 10 10 10 10
16 16 16 15 15 15 14 14 14 14 14 13 13 13 13 13 13 13 12 12 12 12 12 12 12 11 11 11 11 11 10 10 10 10 10 10 10 10 10 10 9 9 9
16 15 15 15 15 14 14 14 14 14 13 13 13 13 12 12 12 12 12 12 12 12 12 11 11 11 11 11 11 10 10 10 10 10 10 10 10 10 9 9 9 9 9
15 15 15 14 14 14 14 14 13 13 13 13 12 12 12 12 12 11 11 11 11 11 11 11 11 11 11 10 10 10 10 10 10 10 10 10 9 9 9 9 9 9 9
15 14 14 14 14 14 13 13 13 13 13 12 12 12 12 11 11 11 11 11 11 11 11 11 11 10 10 10 10 10 10 10 9 9 9 9 9 9 9 9 9 8 8
14 14 14 14 13 13 13 13 13 12 12 12 12 11 11 11 11 11 11 10 10 10 10 10 10 10 10 10 10 10 9 9 9 9 9 9 9 9 9 8 8 8 8
14 13 13 13 13 13 13 12 12 12 12 12 11 11 11 11 10 10 10 10 10 10 10 10 10 10 10 10 9 9 9 9 9 9 8 8 8 8 8 8 8 8 7
Wind_Speed
4 4 4 5 5 5 6 5 6 4 4 3 2 2 2 1 2 2 4 5 5 6 5 4 4 4 3 3 3 3 3 2 3 4 3 4 4 3 2 3 4 4 4
3 3 4 4 5 5 5 5 5 5 4 3 2 2 2 1 1 2 4 5 5 5 5 4 3 3 3 3 3 3 2 1 2 3 3 2 4 4 3 2 2 3 4
7 6 5 4 5 5 6 6 6 5 4 4 4 4 4 3 3 3 2 3 5 5 5 5 4 3 3 3 3 3 4 2 0 1 3 3 2 1 3 3 2 2 2
6 6 6 5 5 6 6 5 5 5 4 5 5 5 4 3 1 1 1 2 4 5 5 5 5 3 3 3 3 3 3 3 1 0 1 2 4 3 0 3 3 2 2
8 8 7 7 5 5 6 5 5 4 4 5 6 5 4 3 2 2 3 2 2 4 4 5 4 3 3 2 2 2 2 2 3 2 1 2 2 2 3 1 2 2 2
8 7 6 5 4 4 5 5 6 4 4 5 5 6 6 5 4 3 3 2 2 2 2 4 4 3 3 2 2 2 3 2 3 2 2 2 2 2 3 2 1 1 1
7 7 5 5 5 5 5 6 6 5 4 5 5 6 6 6 5 4 3 3 2 1 1 2 2 2 2 3 3 3 2 2 3 2 2 2 2 2 3 3 2 1 1
6 6 6 6 5 6 6 6 6 5 4 5 5 5 6 5 4 4 3 3 2 2 2 3 3 3 3 3 3 2 2 2 2 3 2 2 1 2 3 3 4 2 1
7 7 6 5 5 6 6 7 7 5 5 5 5 5 5 4 4 4 3 2 2 2 3 3 3 3 3 4 4 3 2 2 2 2 2 2 1 1 1 2 3 4 2
6 6 6 6 5 6 5 6 6 6 5 5 5 5 5 5 5 4 4 3 3 2 3 3 2 3 3 4 4 3 2 3 2 2 2 1 1 1 1 2 1 2 4
7 7 6 5 5 4 4 5 4 4 4 4 4 4 4 5 4 4 4 4 3 3 3 3 3 3 3 3 4 3 3 3 2 2 3 2 1 1 1 2 2 2 2
6 6 6 5 4 4 4 4 4 4 4 4 4 4 4 4 4 4 4 3 3 3 3 3 3 3 3 3 4 3 2 3 2 1 2 1 2 2 1 2 2 2 2
5 5 5 6 5 5 4 4 3 3 3 4 4 4 4 4 4 4 4 4 4 3 3 3 3 3 3 3 3 3 2 2 2 2 2 2 3 2 1 2 2 1 1
6 6 6 5 5 5 4 4 3 3 3 4 4 4 4 4 5 4 4 4 4 4 4 3 3 3 3 3 3 3 2 2 2 2 2 2 3 3 3 2 2 2 2
6 6 6 5 5 4 4 3 3 3 3 3 3 3 3 3 3 3 3 3 4 4 4 4 3 3 3 3 3 3 3 2 1 1 1 2 3 3 3 3 3 3 2
6 6 6 6 6 6 5 4 3 3 3 3 3 2 2 2 2 3 3 3 3 3 3 4 3 3 2 3 5 4 3 3 2 2 1 1 2 2 2 3 5 5 4
6 6 6 6 6 6 7 6 4 3 3 3 2 2 3 3 2 2 3 3 3 3 3 4 4 3 3 4 5 5 4 3 3 3 2 2 2 1 2 2 3 4 5
6 6 5 5 4 4 4 4 3 4 3 3 2 2 3 3 2 2 2 3 3 3 3 4 4 3 3 4 5 5 4 3 3 4 4 4 3 3 3 2 2 2 3
5 5 5 5 4 4 5 5 4 4 3 3 3 3 3 3 3 3 3 2 2 3 3 3 4 4 4 5 5 5 3 2 3 3 3 3 4 4 4 3 3 2 3
3 4 4 3 4 4 4 5 4 4 4 4 4 4 3 4 5 5 4 2 3 3 3 3 4 5 5 6 6 6 3 3 2 2 3 4 5 5 4 4 4 4 4
3 4 4 4 4 4 5 4 4 5 5 4 3 3 4 4 4 4 3 3 3 3 3 3 3 4 5 6 7 7 5 4 3 3 3 4 6 6 6 5 5 7 4
3 3 3 2 3 4 5 5 5 6 4 3 3 4 3 3 3 3 3 3 3 3 3 3 3 3 4 5 6 7 7 5 5 5 4 5 6 6 6 5 5 4 3
3 3 3 2 2 3 5 6 6 4 3 3 3 4 3 3 3 4 4 3 3 4 4 3 4 3 3 4 7 7 7 7 5 5 6 6 6 5 4 5 4 3 3
3 3 3 3 2 3 4 5 4 4 4 4 4 3 3 3 3 3 4 4 5 5 5 5 5 4 3 4 4 4 4 5 4 3 3 4 3 2 2 2 2 2 3
3 3 4 4 4 3 3 3 4 4 4 4 4 3 3 3 3 3 4 5 6 6 6 6 6 5 5 7 7 5 4 4 4 2 1 1 1 1 1 1 2 2 2
3 3 4 4 4 3 3 3 3 4 5 3 3 3 3 2 2 3 2 4 4 5 6 5 5 5 6 6 6 7 6 5 5 4 2 3 3 3 4 3 3 3 3
Wind_Direction
192 171 155 153 144 138 132 137 134 133 119 102 95 97 95 90 83 89 100 114 120 122 120 118 114 117 114 123 118 107 95 82 93 83 49 21 28 48 53 79 92 92 98
153 152 145 143 148 150 142 145 151 148 140 136 134 129 122 106 96 80 72 93 108 123 127 123 126 124 120 111 105 110 109 101 99 113 99 32 8 9 23 36 75 82 84
172 168 162 155 150 157 161 161 159 157 153 136 108 86 70 55 49 50 46 64 99 111 122 127 125 130 133 138 138 136 139 152 114 115 136 141 197 322 354 24 45 54 59
170 166 165 161 163 170 163 156 155 151 145 133 127 128 125 127 165 141 97 72 91 106 117 122 125 125 126 135 153 150 148 148 173 5 80 149 153 148 354 349 10 38 52
171 171 173 175 173 166 156 154 149 146 142 137 138 135 127 137 130 105 91 74 71 93 109 115 117 120 124 132 136 130 133 144 157 164 144 93 83 108 140 205 337 7 8
170 171 170 159 158 151 144 147 146 148 147 141 139 140 140 136 125 119 113 97 75 67 88 110 109 121 129 126 127 129 130 129 125 127 131 142 141 155 146 167 200 251 309
167 161 152 155 156 150 148 148 148 153 155 146 146 149 148 145 148 151 146 135 113 100 113 108 112 118 129 126 117 115 116 121 121 130 136 140 159 160 149 148 166 191 291
165 167 170 163 159 160 156 152 155 159 155 154 158 154 151 148 153 155 147 155 163 176 155 126 117 113 113 109 109 106 121 118 123 127 132 125 140 139 149 156 153 144 342
169 168 168 163 160 160 163 163 161 161 162 165 160 153 152 150 158 159 144 152 169 162 143 127 121 114 108 108 109 105 112 111 106 124 124 127 136 127 133 144 155 154 169
169 170 172 172 170 165 158 158 162 166 164 159 163 160 162 166 163 151 153 163 173 152 139 131 121 108 102 104 104 105 106 102 103 119 114 104 107 100 106 128 120 134 159
171 173 176 176 167 156 153 152 155 154 159 164 163 159 164 165 157 158 176 175 163 159 153 153 138 126 121 111 109 112 110 109 94 96 118 131 130 111 102 102 96 98 124
168 166 163 153 149 152 152 157 160 162 174 169 157 162 165 154 156 169 179 163 154 157 159 151 144 140 134 132 135 138 124 129 132 140 129 155 140 119 124 118 117 128 140
159 156 154 159 160 158 155 156 159 168 171 154 148 149 155 159 168 177 171 158 155 158 152 150 152 151 150 150 155 157 154 151 162 168 161 184 152 153 155 141 136 146 127
163 164 167 169 166 163 163 162 168 160 152 149 151 161 173 181 183 181 170 165 160 156 157 157 157 155 157 159 160 161 154 155 169 175 178 186 177 187 183 170 168 148 124
166 171 175 177 171 165 166 172 175 161 151 152 164 189 194 179 176 176 174 169 166 169 164 149 143 146 157 169 160 158 158 160 168 180 196 200 184 184 186 181 176 158 148
176 179 174 175 181 177 172 174 174 168 153 154 178 194 176 165 172 182 173 163 166 162 152 152 160 168 189 177 169 164 165 165 165 183 215 218 191 204 202 191 171 161 164
181 179 182 185 189 188 179 181 180 159 144 159 178 183 180 180 190 182 160 169 175 166 169 175 176 186 199 181 172 167 166 174 186 195 209 234 234 198 203 199 188 194 190
184 187 187 185 185 180 180 176 159 156 161 168 183 186 182 187 187 159 173 191 178 177 186 192 187 188 209 189 175 166 164 174 196 210 211 213 235 227 200 188 191 215 227
189 187 186 181 175 173 171 156 159 166 169 186 201 202 191 197 196 197 201 196 182 191 201 196 193 199 219 201 184 162 162 182 218 230 223 212 221 237 202 177 192 223 263
156 157 155 145 156 177 155 151 169 174 195 205 209 205 198 200 208 214 212 206 197 204 198 211 211 207 217 210 192 173 173 195 229 250 244 228 229 240 210 190 190 215 241
144 141 143 158 184 177 155 163 183 204 210 207 208 207 207 213 219 215 211 205 200 199 207 219 234 226 220 215 202 189 190 199 212 228 242 246 243 243 229 210 204 220 217
147 144 149 186 200 176 169 183 209 220 210 200 207 215 219 223 224 205 206 204 193 198 213 222 245 248 232 220 215 209 209 203 201 221 231 237 239 241 233 220 224 213 186
173 168 168 188 207 194 184 196 220 214 201 202 213 221 223 226 215 202 201 207 205 209 218 217 228 246 242 231 225 219 220 217 217 226 232 235 233 236 240 232 213 192 180
186 184 174 188 222 218 207 211 211 196 191 203 217 222 218 225 227 215 204 208 213 217 219 224 231 238 242 233 222 218 227 227 232 238 240 238 234 227 236 227 210 207 200
213 197 193 206 226 228 229 224 205 184 188 202 211 221 225 222 231 230 221 220 226 219 216 222 221 220 235 237 222 206 216 214 209 185 171 186 212 232 244 236 224 215 207
213 211 213 218 230 227 230 228 203 183 180 198 210 212 212 221 230 234 260 258 246 247 235 233 232 233 237 238 226 223 226 212 183 159 186 208 214 222 228 227 234 227 224
Height
1537 1538 1540 1540 1542 1543 1544 1545 1545 1546 1547 1548 1548 1549 1549 1550 1551 1551 1551 1552 1552 1553 1553 1553 1554 1554 1555 1555 1555 1555 1556 1556 1556 1556 1556 1556 1556 1556 1556 1555 1555 1554 1553
1536 1537 1538 1540 1541 1542 1543 1544 1545 1546 1547 1548 1548 1549 1549 1550 1550 1551 1551 1551 1552 1552 1552 1553 1554 1554 1554 1555 1555 1555 1555 1556 1556 1556 1556 1556 1558 1557 1557 1556 1555 1555 1554
1535 1536 1537 1539 1540 1541 1542 1544 1545 1546 1547 1548 1548 1549 1549 1549 1550 1550 1550 1551 1551 1551 1552 1552 1553 1553 1554 1554 1554 1554 1555 1555 1556 1556 1556 1556 1556 1557 1557 1556 1556 1556 1555
1534 1535 1536 1537 1539 1540 1542 1543 1544 1545 1546 1547 1547 1548 1548 1548 1549 1550 1550 1550 1551 1551 1551 1552 1552 1552 1553 1553 1553 1554 1554 1554 1555 1555 1555 1556 1555 1556 1556 1557 1556 1556 1555
1532 1534 1535 1536 1537 1539 1541 1542 1543 1544 1545 1546 1547 1547 1548 1548 1549 1549 1550 1550 1550 1551 1551 1551 1551 1551 1552 1552 1552 1553 1553 1553 1554 1554 1554 1554 1554 1555 1555 1555 1556 1556 1555
1531 1532 1534 1535 1537 1538 1540 1541 1542 1543 1545 1545 1546 1546 1547 1548 1548 1548 1549 1549 1549 1550 1550 1550 1550 1550 1551 1551 1551 1551 1552 1552 1552 1553 1553 1553 1553 1553 1554 1554 1554 1554 1555
1530 1531 1533 1534 1536 1537 1538 1540 1541 1542 1543 1544 1545 1545 1546 1547 1547 1548 1548 1548 1549 1549 1549 1549 1549 1549 1550 1550 1550 1550 1551 1551 1551 1551 1552 1552 1552 1552 1552 1553 1553 1553 1553
1529 1530 1532 1533 1534 1536 1537 1539 1540 1541 1542 1543 1544 1544 1545 1546 1546 1547 1547 1547 1548 1548 1548 1548 1549 1549 1549 1549 1549 1549 1549 1550 1550 1550 1550 1550 1550 1551 1551 1551 1551 1551 1552
1527 1529 1531 1532 1533 1535 1536 1537 1539 1540 1541 1542 1542 1543 1544 1544 1545 1546 1546 1547 1547 1547 1548 1548 1548 1548 1548 1548 1548 1548 1548 1548 1548 1548 1549 1549 1549 1549 1549 1550 1550 1551 1550
1526 1528 1529 1531 1532 1534 1535 1536 1537 1538 1539 1540 1541 1542 1543 1543 1544 1545 1545 1545 1546 1546 1547 1547 1547 1547 1547 1547 1547 1547 1547 1547 1547 1547 1547 1547 1547 1547 1548 1548 1548 1549 1549
1525 1526 1528 1529 1531 1532 1534 1535 1536 1537 1538 1539 1540 1540 1541 1542 1543 1543 1544 1544 1545 1545 1545 1546 1546 1546 1546 1546 1546 1546 1546 1545 1545 1545 1545 1546 1546 1546 1546 1546 1547 1547 1547
1524 1525 1526 1528 1529 1531 1532 1533 1535 1535 1536 1537 1538 1539 1540 1540 1541 1542 1542 1543 1543 1544 1544 1544 1544 1544 1544 1544 1544 1544 1544 1544 1544 1544 1544 1544 1544 1545 1545 1545 1545 1545 1545
1523 1524 1525 1527 1528 1529 1531 1532 1533 1534 1535 1536 1536 1537 1538 1538 1539 1540 1540 1541 1542 1542 1542 1543 1543 1543 1543 1543 1543 1543 1543 1543 1543 1543 1543 1543 1543 1543 1543 1543 1543 1544 1544
1522 1523 1524 1525 1527 1528 1529 1530 1531 1532 1533 1534 1535 1535 1536 1536 1537 1538 1539 1539 1540 1540 1540 1541 1541 1541 1541 1541 1541 1541 1541 1541 1541 1541 1541 1541 1541 1541 1541 1541 1541 1542 1541
1521 1522 1523 1524 1525 1526 1527 1529 1530 1531 1531 1532 1533 1533 1534 1535 1535 1536 1536 1537 1537 1538 1538 1539 1539 1539 1539 1539 1539 1539 1539 1539 1539 1539 1540 1540 1540 1540 1539 1539 1539 1539 1539
1519 1520 1521 1522 1523 1524 1525 1526 1528 1528 1529 1530 1530 1531 1532 1532 1533 1533 1534 1534 1535 1536 1536 1536 1537 1537 1537 1537 1537 1537 1537 1537 1537 1537 1537 1537 1537 1537 1537 1537 1537 1537 1537
1517 1518 1519 1520 1521 1522 1523 1524 1525 1526 1527 1528 1528 1529 1529 1529 1530 1531 1531 1532 1532 1533 1533 1534 1534 1534 1534 1534 1534 1534 1534 1534 1535 1535 1534 1534 1534 1534 1534 1534 1534 1535 1535
1515 1516 1517 1518 1519 1520 1521 1522 1523 1524 1525 1525 1526 1526 1526 1527 1527 1528 1528 1529 1530 1530 1530 1531 1531 1531 1531 1531 1531 1532 1532 1532 1532 1532 1532 1531 1531 1531 1531 1531 1531 1531 1531
1513 1514 1515 1516 1517 1518 1519 1520 1520 1521 1522 1522 1523 1523 1524 1524 1524 1525 1525 1526 1527 1527 1527 1527 1528 1528 1528 1528 1528 1528 1528 1528 1528 1528 1528 1528 1528 1528 1528 1528 1528 1528 1528
1512 1512 1513 1514 1515 1516 1517 1517 1518 1518 1519 1519 1520 1520 1521 1521 1521 1522 1522 1523 1523 1524 1524 1524 1524 1524 1524 1525 1525 1525 1525 1525 1525 1525 1525 1525 1525 1525 1524 1524 1524 1524 1524
1510 1510 1511 1512 1512 1513 1514 1515 1515 1515 1516 1517 1517 1517 1517 1518 1518 1518 1519 1519 1520 1520 1520 1520 1520 1521 1521 1521 1521 1521 1521 1521 1521 1521 1520 1521 1521 1521 1521 1521 1521 1521 1521
1507 1508 1509 1509 1510 1511 1512 1512 1512 1512 1513 1513 1513 1513 1514 1514 1514 1514 1515 1515 1516 1516 1516 1516 1516 1516 1516 1517 1517 1517 1517 1517 1517 1516 1516 1516 1517 1517 1517 1517 1517 1517 1517
1505 1506 1506 1507 1507 1508 1509 1508 1508 1509 1509 1509 1509 1509 1510 1510 1510 1510 1510 1511 1511 1511 1511 1511 1511 1511 1512 1512 1512 1512 1513 1513 1512 1512 1512 1512 1513 1513 1512 1512 1512 1513 1512
1502 1503 1503 1503 1504 1504 1505 1505 1505 1505 1505 1505 1505 1505 1505 1505 1506 1506 1506 1506 1506 1506 1506 1506 1506 1506 1507 1507 1507 1507 1507 1508 1508 1508 1508 1508 1508 1508 1508 1508 1508 1508 1507
1499 1499 1500 1500 1500 1500 1500 1501 1501 1501 1501 1501 1501 1501 1501 1501 1501 1501 1501 1501 1501 1501 1501 1501 1501 1501 1501 1502 1502 1502 1502 1502 1502 1503 1502 1502 1503 1502 1503 1503 1503 1503 1503
1495 1496 1496 1496 1496 1496 1496 1496 1497 1497 1497 1497 1497 1497 1497 1497 1497 1496 1496 1496 1497 1497 1497 1497 1497 1497 1497 1497 1497 1497 1497 1497 1498 1498 1497 1497 1497 1497 1498 1498 1497 1498 1498